OPS 4682 DEB, 18271

Orbit data source: Space-Track

OPS 4682 DEB, 18271 is space debris in LEO originally from a launch on Sat, 03 Apr 1965 UTC launched from the Air Force Western Test Range (AFWTR). Debris objects in space refer to the collection of defunct objects orbiting the Earth. Examples of debris include non-operational satellites, rocket bodies, and fragments generated from explosions, collisions, or faulty payload assembly.

Loading next visibility...
Identifier
18271, 1965-027AA
Orbit
LEO
Last TLE update
17 hours ago
Origin
Manufacturer
Unknown
Mission
Spacecraft
Bus & Motor
Unknown
Mass
Unknown
Launch date (UTC)
1965-04-03 (60 years ago)
Launch vehicle
Unknown
Launch site
Air Force Western Test Range (AFWTR)
Object type
Payload
Rocket body
Debris
Shape & HBR
Unknown
Radar Cross Section
Small (<0.1 m²)

Expand to show TLE details & history

TLE from 17 hours ago
0 OPS 4682 DEB
1 18271U 65027AA  25128.58508312  .00000265  00000-0  88601-3 0  9998
2 18271  90.2422 358.5231 0033722 101.1413 322.4338 12.97410858837058
Epoch: 2025-05-08T14:02Z
Definitive object data (Epoch: 2025-05-08T14:02:31.181Z)
Latitude
63.42034°
Longitude
-79.24196°
Altitude
1,262.809 km
Speed
7.239 km/s
True Right ascension
23h 52m 09s
True Declination
63° 17' 30"
Sunlit
Object was in daylight at TLE epoch
Visualization TLE readout
Latitude
87.32949°
Longitude
106.42887°
Altitude
1,260.492 km
Speed
7.244 km/s
Apparent Right ascension
03h 11m 31s
Apparent Declination
37° 20' 52"
Sunlit
Object is in daylight
Visualization observer readout
Local Sidereal Time
14:59:53
Azimuth
357.629° N
Elevation
-12.69°
Doppler factor
1
Orbital elements
Apogee altitude
1,295.168 km
Perigee altitude
1,243.59 km
Semi-major axis
7,647.516 km
Eccentricity
0.0033722
Inclination
90.2422°
RAAN
358.5231°
Arg. of periapsis
101.1413°
True anomaly
322.19742°
Mean anomaly
322.4338°
Eccentric anomaly
322.31569°
Mean motion
3.24536 °/min
BSTAR
0.00088601
Orbital period
110.93 mins
Loading maneuver chart data...
Loading SW <> Apogee altitude chart data...
Loading historical data...
Loading historical data...
Loading historical data...
Loading historical data...
Loading historical data...
Loading historical data...
Loading historical data...

OPS 4682 DEB Visibility forecast

Observer location: undefined°, undefined°

Span
Click to sort rows by Start time (UTC) header in descending order
Start Az.
Max El. time (UTC)
Max El. Az.
Max El.
End time (UTC)
End Az.
8 mins2025-05-09 13:55:59.084Z105.817° ESE2025-05-09 13:59:59.084Z72.215° E17.022°2025-05-09 14:03:59.084Z36.761° NE
13 mins2025-05-09 15:43:59.084Z180.356° SSW2025-05-09 15:49:59.084Z259.666° W44.703°2025-05-09 15:56:59.084Z355.482° N
5 mins2025-05-09 17:39:59.084Z270.285° WNW2025-05-09 17:41:59.084Z287.006° WNW12.758°2025-05-09 17:44:59.084Z311.282° NW
13 mins2025-05-10 03:20:59.084Z8.234° NNE2025-05-10 03:26:59.084Z81.818° E43.558°2025-05-10 03:33:59.084Z174.855° S
9 mins2025-05-10 05:12:59.084Z326.489° NNW2025-05-10 05:16:59.084Z289.941° WNW19.369°2025-05-10 05:21:59.084Z246.477° WSW
|